RH
70 69 78 74 82 92 100 100 100 100 100 100 100 96 90 82 86 74 71 78 74 77 77 74 69 71 68 74 73 68 68 61 57 58 40 24 20 15 8 5 4 3 4
73 76 74 79 76 100 100 100 100 100 100 100 94 86 84 93 92 91 87 88 80 77 73 69 69 73 72 72 74 72 66 62 60 48 30 20 15 9 6 4 3 3 3
80 72 73 99 100 100 100 100 98 93 91 80 74 72 79 96 84 82 87 89 95 96 89 79 85 78 75 81 74 73 67 66 53 38 24 18 11 7 5 4 3 3 3
78 77 90 91 99 99 100 97 90 80 72 63 76 87 98 90 92 98 94 93 93 89 82 86 83 83 89 78 74 75 72 63 41 26 20 15 9 6 4 4 4 4 4
84 84 78 82 90 94 87 82 79 70 67 89 96 95 94 91 100 95 94 85 72 75 84 84 80 89 82 79 80 73 66 50 30 22 17 10 7 4 4 4 4 4 4
92 92 92 93 89 84 81 80 76 77 95 99 100 98 100 100 100 94 80 77 83 87 86 89 92 88 87 82 72 67 57 35 26 17 12 8 6 4 4 5 5 4 5
96 97 99 97 92 88 82 80 95 100 100 100 99 100 100 99 92 83 85 84 90 90 92 94 90 92 85 73 66 57 40 30 21 10 10 6 5 5 5 5 5 5 4
97 95 89 86 90 92 92 100 100 97 93 98 100 100 96 87 83 79 79 89 94 96 96 94 94 89 77 68 52 42 32 22 12 10 8 5 5 6 6 5 5 5 4
88 93 96 100 98 99 100 100 95 90 97 100 98 91 85 82 75 77 86 92 100 100 89 98 89 75 64 56 40 32 22 12 7 8 6 6 6 6 5 5 5 5 4
98 97 93 94 98 100 90 84 91 94 92 92 87 84 80 79 90 92 97 100 95 90 97 90 82 71 45 36 30 23 13 7 6 6 5 6 6 6 5 5 5 5 4
92 93 94 88 79 84 90 86 87 85 76 76 83 96 100 100 96 93 95 91 88 93 86 80 61 42 35 27 18 12 8 5 4 5 6 6 6 6 5 6 5 5 4
87 82 79 82 84 85 86 83 79 84 96 100 99 90 83 87 91 91 92 84 79 68 65 49 37 32 26 15 10 7 5 4 5 6 6 5 6 5 5 6 5 5 5
88 88 84 84 92 91 83 86 94 93 85 82 82 84 88 86 88 90 89 84 70 50 35 32 28 20 13 8 6 5 5 5 6 6 5 5 6 5 5 5 5 5 5
95 96 89 77 74 83 85 84 81 81 82 80 81 84 92 91 84 76 66 57 46 40 38 32 20 11 8 6 4 5 5 5 5 5 5 5 5 4 5 5 5 5 4
78 75 74 79 88 90 90 85 88 93 86 85 90 85 80 70 55 49 42 38 37 36 26 17 11 8 5 5 5 5 4 4 4 4 4 4 4 4 4 4 4 4 4
67 69 72 79 77 82 89 90 95 92 91 81 70 61 49 42 37 36 33 30 24 15 10 6 5 5 5 5 4 3 3 3 3 3 4 3 3 4 4 4 4 4 3
64 69 78 80 84 88 92 96 94 89 78 70 57 50 44 43 40 35 30 21 15 10 6 5 4 5 5 4 3 3 3 3 3 3 3 3 3 4 4 4 4 3 3
74 73 83 89 84 89 86 85 79 72 65 59 52 49 48 41 32 25 18 13 9 6 4 4 5 4 3 3 3 3 3 3 3 3 3 3 3 4 4 4 3 3 3
89 80 78 92 89 77 76 75 69 60 52 48 49 46 37 28 21 15 10 6 5 4 4 4 3 3 3 3 3 3 3 3 3 3 3 3 3 3 3 3 3 3 3
76 74 90 86 79 73 71 70 57 53 52 51 44 34 26 20 13 8 6 5 4 4 4 3 3 3 3 3 3 3 3 3 3 2 2 2 2 2 3 3 3 3 3
87 89 85 71 63 75 70 58 56 55 51 44 33 22 15 10 7 6 5 5 4 4 3 3 3 3 3 2 2 3 3 2 2 2 2 2 2 2 3 3 3 3 3
80 71 62 66 85 73 61 55 55 48 42 36 23 14 8 6 5 4 4 4 3 3 3 3 2 2 2 2 2 2 2 2 2 2 2 2 2 2 2 3 3 3 3
70 71 78 84 69 56 53 50 43 39 28 19 12 8 5 4 4 4 4 3 3 3 3 2 2 2 2 2 2 2 2 2 2 2 2 2 2 2 2 3 3 3 3
82 78 75 58 50 49 46 41 32 22 15 9 6 5 4 4 4 4 3 3 3 3 2 2 2 2 2 2 2 2 2 2 2 2 2 2 2 2 2 3 3 3 3
69 61 49 47 45 42 33 23 17 11 7 6 4 4 4 4 3 3 3 3 2 2 2 2 2 2 2 2 2 2 2 2 2 2 2 2 2 2 2 3 3 3 3
51 47 45 42 34 25 18 12 7 6 5 4 4 3 3 3 3 2 2 2 2 2 2 2 2 2 2 2 2 2 2 2 2 2 2 2 3 2 2 3 3 3 3
Wind_Speed
36 33 32 32 30 34 40 48 50 56 61 62 65 71 76 79 83 85 86 89 93 95 97 100 102 102 102 106 110 110 115 118 118 120 118 114 107 102 93 83 78 75 72
37 36 35 38 36 38 45 51 56 60 62 64 70 75 78 80 84 88 90 93 97 100 102 102 105 105 108 111 112 115 119 121 123 120 119 112 103 95 86 79 75 70 68
40 40 38 39 42 46 51 57 62 65 68 72 76 77 79 83 86 89 93 97 99 102 106 107 108 110 111 115 116 119 123 124 123 121 117 108 100 90 82 76 72 68 64
42 43 43 44 48 51 56 61 65 69 72 74 77 79 83 86 90 93 95 99 100 104 107 108 110 111 115 118 120 124 126 126 124 119 110 104 95 86 79 74 71 66 61
47 48 49 51 54 58 62 66 69 73 74 77 80 83 87 90 94 97 98 101 103 105 107 110 111 114 118 121 124 127 127 126 121 114 108 98 91 83 77 71 66 63 58
53 54 55 57 60 63 66 70 73 75 77 81 83 87 90 95 96 101 102 103 106 108 111 112 114 118 121 124 127 127 128 123 117 111 102 94 88 81 75 68 64 59 55
55 57 60 63 65 67 70 73 76 78 81 84 87 90 92 95 99 100 103 106 108 111 111 114 117 122 125 128 128 127 124 119 114 103 98 90 84 79 73 66 61 57 52
58 61 64 66 68 71 74 76 79 82 85 88 90 93 95 97 99 103 106 108 110 111 115 118 122 126 129 129 127 122 120 114 107 97 92 85 80 74 68 62 57 55 51
57 61 65 68 71 73 76 80 83 85 87 90 93 95 96 100 104 108 109 108 110 116 118 122 126 128 128 125 122 119 116 109 95 91 86 81 77 70 64 58 55 54 53
61 64 68 71 73 76 79 82 83 85 88 90 93 97 101 105 108 109 110 112 115 118 121 124 126 126 124 120 117 113 109 100 88 84 82 77 70 64 61 56 54 54 51
62 65 68 70 73 76 79 81 83 87 90 94 98 102 104 104 107 112 115 117 118 118 120 122 122 120 119 115 111 106 100 92 83 79 75 71 65 62 60 56 54 52 50
62 65 68 71 74 77 79 82 85 89 93 95 97 100 104 107 110 112 115 117 118 118 117 115 114 113 111 108 102 97 91 84 80 74 72 64 61 59 57 53 51 49 47
63 67 70 72 74 75 78 82 85 88 93 96 97 100 105 109 111 112 115 117 119 119 116 113 109 107 104 99 93 89 85 79 74 69 66 60 60 56 54 51 48 46 44
63 65 69 73 77 79 81 85 88 91 94 98 101 104 106 109 111 112 111 110 111 111 112 111 109 102 97 93 88 83 79 73 67 65 63 58 57 53 51 49 46 43 41
66 69 72 75 78 82 86 87 91 96 100 101 103 106 107 109 108 106 106 106 105 105 103 102 97 96 91 88 83 78 72 68 66 62 60 56 54 51 49 46 44 41 39
70 75 77 82 84 86 87 90 97 101 102 104 105 104 104 103 103 104 104 105 104 100 94 91 89 87 84 80 77 73 70 65 61 58 56 54 50 47 46 43 41 38 37
78 80 83 87 87 88 93 99 101 100 102 103 104 103 104 105 105 105 104 103 101 95 89 86 83 80 78 74 71 67 64 62 58 55 53 52 47 44 43 39 38 36 35
85 89 90 92 92 96 98 98 100 100 101 103 104 105 108 108 107 105 101 97 93 89 84 79 76 75 72 69 66 64 61 58 55 52 50 47 43 41 39 35 36 34 32
92 94 93 96 99 99 100 101 102 103 103 104 107 109 108 108 106 102 96 90 86 83 79 76 71 69 68 66 62 59 56 54 51 49 46 43 40 38 36 34 34 31 30
93 94 99 101 101 101 103 105 105 106 107 109 111 111 110 108 102 95 89 86 83 79 75 72 69 67 63 60 57 54 52 49 47 44 41 40 37 35 33 32 31 30 28
98 101 103 103 102 105 108 108 109 111 112 113 113 111 108 100 92 87 83 80 77 74 72 70 68 62 58 55 52 48 47 45 42 40 38 37 35 33 31 30 29 28 27
106 105 105 105 109 111 112 113 113 113 114 116 114 107 98 91 85 82 78 75 72 70 69 67 62 57 54 51 48 45 42 41 40 38 35 35 33 31 29 28 28 27 25
107 107 110 113 114 115 115 114 114 116 115 111 104 97 91 86 82 78 75 72 70 67 65 61 58 55 50 48 45 42 39 38 38 36 33 32 31 29 27 27 27 26 24
113 113 115 115 116 116 116 116 117 114 108 100 94 89 86 83 79 75 72 69 67 64 61 58 55 52 47 44 42 41 38 35 35 35 32 30 29 27 25 25 26 25 23
116 116 117 117 118 117 117 114 110 104 97 93 90 87 82 78 75 72 69 65 62 59 57 54 52 48 45 42 40 39 37 34 33 33 30 28 28 26 24 24 25 25 23
117 118 119 119 117 115 112 107 100 96 93 90 86 82 79 75 71 68 65 61 58 55 53 52 48 44 42 41 38 36 34 32 30 31 29 27 26 25 23 24 24 24 22
Wind_Direction
266 260 255 257 260 263 271 271 273 275 281 284 287 290 293 295 298 300 304 307 307 308 308 309 309 308 309 311 311 311 311 313 314 314 315 315 314 312 311 308 305 304 302
259 256 259 263 264 259 265 271 274 280 282 285 289 292 297 299 301 304 306 306 306 307 308 308 308 310 311 311 312 311 312 314 314 315 315 315 314 313 311 309 307 306 303
256 257 261 267 268 268 268 271 276 280 284 287 290 294 297 300 303 305 306 307 309 308 309 309 311 311 311 312 312 312 314 314 314 315 315 315 314 313 311 310 308 306 304
262 262 263 263 268 272 276 278 279 282 285 290 295 299 302 303 304 304 305 305 307 307 308 310 311 310 311 311 311 313 313 314 315 316 316 315 314 313 311 310 308 306 304
262 265 266 269 274 277 278 281 285 288 294 297 299 301 301 303 303 303 304 305 306 308 309 310 309 310 311 311 312 312 313 314 315 315 316 316 314 312 311 310 307 305 304
265 269 272 275 277 280 284 286 289 295 298 298 299 300 302 303 303 303 305 307 308 308 309 309 310 310 310 310 311 313 313 314 314 315 316 315 313 313 311 310 307 305 304
268 272 275 278 280 283 286 291 295 297 297 298 300 301 301 301 302 303 305 307 308 308 308 309 310 309 309 310 311 312 313 313 313 316 315 313 313 312 311 309 307 305 304
270 272 275 279 284 288 291 295 295 295 297 300 300 300 300 301 303 304 305 306 308 308 309 309 308 309 309 310 311 312 312 312 312 315 312 312 311 311 310 308 307 304 303
279 281 284 286 288 292 294 294 295 298 299 300 300 300 302 303 304 304 306 307 308 308 308 308 308 308 309 310 311 311 312 311 313 313 311 311 310 310 308 308 306 303 303
282 284 286 288 291 291 292 295 297 298 300 299 301 302 303 305 305 306 307 306 307 306 307 307 308 309 309 310 310 311 309 310 312 311 309 308 309 308 307 307 305 303 302
284 286 288 288 290 293 295 298 299 298 299 302 304 305 305 305 305 306 306 305 305 305 306 307 308 308 308 309 310 309 309 310 311 310 308 307 307 306 306 306 303 302 301
288 290 292 295 297 298 298 299 302 304 304 304 304 304 305 305 304 304 304 304 305 305 306 306 307 308 308 308 309 308 308 310 310 308 306 306 304 304 304 303 301 300 300
294 295 296 298 298 299 301 303 304 303 303 304 303 303 304 303 304 305 305 305 306 307 307 309 310 309 308 308 308 308 308 309 308 306 304 305 303 305 303 301 300 299 299
297 297 297 297 299 302 304 304 304 305 306 306 305 305 304 303 303 304 303 304 304 306 309 311 310 309 309 308 309 308 308 307 306 303 303 303 302 303 301 300 299 298 297
298 300 302 301 301 302 305 304 306 307 307 306 304 302 302 303 303 303 304 305 306 308 309 309 309 309 309 308 308 307 306 304 303 302 301 301 300 301 299 298 297 297 295
303 304 304 305 305 305 304 305 307 307 305 303 303 304 304 304 305 307 308 309 310 310 310 309 309 308 307 307 306 306 305 304 303 302 300 299 300 299 297 296 295 293 292
306 307 307 308 308 308 308 308 306 304 305 305 307 308 308 309 310 310 311 312 312 310 309 309 309 307 306 306 305 305 305 305 304 301 299 298 299 297 295 295 291 290 290
307 308 307 309 310 309 307 305 305 306 306 308 309 310 311 312 312 312 313 312 310 310 310 309 309 307 306 306 305 305 305 304 303 300 298 298 298 295 293 291 288 288 288
306 306 308 311 309 306 305 307 307 307 309 311 312 313 313 313 313 314 313 311 311 311 310 309 308 307 306 306 306 305 304 303 301 299 298 297 296 293 291 288 285 287 287
306 307 309 308 306 306 309 309 310 312 313 314 314 314 313 314 314 313 313 312 312 311 311 309 309 308 307 306 305 305 303 301 298 297 296 295 294 292 290 287 285 285 284
309 307 307 306 307 310 310 311 312 314 314 314 314 314 313 312 313 313 313 312 312 311 310 309 309 309 308 307 306 304 301 299 297 296 295 294 293 291 288 284 282 281 280
307 306 308 310 310 310 311 312 313 313 313 313 313 313 312 313 314 314 314 312 311 311 310 309 309 309 308 306 305 303 300 298 296 294 293 290 288 287 286 281 278 278 275
310 310 310 309 309 310 311 312 312 312 312 312 312 312 312 313 314 314 313 312 311 311 310 309 309 309 308 306 305 303 300 298 295 294 292 288 285 284 282 277 275 273 272
309 309 308 308 308 310 311 311 311 311 311 311 312 312 313 314 314 314 312 312 311 310 309 309 308 308 307 306 304 302 301 298 294 293 292 288 285 282 278 274 273 271 268
307 306 306 308 309 309 310 310 310 310 311 311 312 313 313 313 313 313 312 311 310 309 308 308 308 307 306 305 303 301 299 296 294 291 291 286 282 279 275 271 270 268 265
304 306 307 307 308 308 309 309 309 310 310 311 311 312 313 313 313 312 311 310 310 309 308 308 307 306 304 303 302 300 297 295 293 290 289 285 279 275 270 266 267 266 263